This is the latest recevied weather packets stored in our database for station/object AK4FD. If no packets are shown the sender has not sent any weather packets the latest 10 day(s).
| Time | Temp. | Humidity | Pressure | Rain* | Wind** | Luminosity | Snow |
|---|---|---|---|---|---|---|---|
| 1777732336 | 12.22° C | 64% | 1014.7 hPa | 0 mm | - | 27 W/m² | - |
| 1777732033 | 12.22° C | 63% | 1014.4 hPa | 0 mm | - | 29 W/m² | - |
| 1777731729 | 12.22° C | 62% | 1014.3 hPa | 0 mm | - | 32 W/m² | - |
| 1777731427 | 12.22° C | 62% | 1014.1 hPa | 0 mm | - | 25 W/m² | - |
| 1777731125 | 12.22° C | 61% | 1014.3 hPa | 0 mm | - | 28 W/m² | - |
| 1777730519 | 12.22° C | 63% | 1014.6 hPa | 0 mm | - | 38 W/m² | - |
| 1777730215 | 12.22° C | 63% | 1014.4 hPa | 0 mm | - | 32 W/m² | - |
| 1777729912 | 12.22° C | 64% | 1014.3 hPa | 0 mm | - | 28 W/m² | - |
| 1777729608 | 12.22° C | 64% | 1014.6 hPa | 0 mm | - | 33 W/m² | - |
| 1777729305 | 12.22° C | 66% | 1014.6 hPa | 0 mm | - | 24 W/m² | - |
| 1777729002 | 12.22° C | 67% | 1014.5 hPa | 0 mm | - | 22 W/m² | - |
| 1777728699 | 12.22° C | 66% | 1014.3 hPa | 0 mm | - | 24 W/m² | - |
| 1777728395 | 12.22° C | 66% | 1014.5 hPa | 0 mm | - | 23 W/m² | - |
| 1777728093 | 12.22° C | 66% | 1014.1 hPa | 0 mm | - | 24 W/m² | - |
| 1777727790 | 12.22° C | 65% | 1014.1 hPa | 0 mm | - | 18 W/m² | - |
| 1777727487 | 12.22° C | 65% | 1014 hPa | 0 mm | - | 23 W/m² | - |
| 1777727184 | 12.22° C | 66% | 1014.3 hPa | 0 mm | - | 19 W/m² | - |
| 1777726882 | 12.22° C | 66% | 1013.8 hPa | 0 mm | - | 21 W/m² | - |
| 1777726577 | 12.22° C | 66% | 1014.3 hPa | 0 mm | - | 18 W/m² | - |
| 1777726275 | 12.22° C | 66% | 1013.9 hPa | 0 mm | - | 14 W/m² | - |
| 1777725972 | 12.22° C | 67% | 1014.1 hPa | 0 mm | - | 11 W/m² | - |
| 1777725669 | 12.22° C | 66% | 1014.1 hPa | 0 mm | - | 8 W/m² | - |
| 1777725367 | 12.22° C | 66% | 1013.9 hPa | 0 mm | - | 7 W/m² | - |
| 1777725063 | 12.22° C | 66% | 1014 hPa | 0 mm | - | 9 W/m² | - |
| 1777724760 | 12.22° C | 66% | 1013.8 hPa | 0 mm | - | 11 W/m² | - |
* Rain latest hour (hover to see other rain measurements)
** Current wind speed in m/s (hover to see current wind gust speed)